Dewpoint
70 69 69 70 70 71 70 70 70 69 69 70 70 70 70 71 71 70 70 70 69 69 69 69 68 68 68 68 70 68 68 66 64 66 68 68 67 67 68 67 69 70 71
68 69 70 70 71 71 70 71 71 71 69 70 70 70 70 70 71 71 71 70 70 69 68 69 68 70 68 68 70 67 68 68 67 65 67 67 67 68 67 67 68 69 68
68 68 69 69 70 71 71 71 72 72 70 69 69 68 67 66 68 71 71 70 70 70 70 69 68 69 68 68 68 68 68 69 68 68 67 68 68 67 68 68 68 68 69
68 68 69 68 68 69 70 70 71 72 71 69 69 67 66 65 66 69 71 71 70 70 71 71 70 70 69 68 68 68 68 68 67 67 66 67 67 68 68 67 68 69 69
67 67 67 69 69 69 68 68 70 71 72 71 70 70 70 70 70 71 71 71 71 70 70 71 71 71 70 69 71 70 69 68 68 67 66 66 67 67 66 67 68 68 67
67 66 67 67 67 67 67 68 68 68 69 70 70 70 70 72 69 67 70 71 71 71 71 71 71 70 70 67 67 67 70 70 68 67 67 67 67 67 67 67 67 65 64
64 65 66 66 65 65 66 66 66 67 67 68 69 70 71 70 66 64 66 70 70 70 70 71 71 71 70 71 69 66 66 65 67 69 68 68 67 67 67 66 65 65 65
61 63 64 64 64 64 64 64 65 65 66 66 68 68 68 69 63 62 65 67 69 68 68 70 70 71 71 71 71 70 70 70 69 67 68 69 68 68 67 67 67 66 66
54 56 57 59 62 63 63 64 64 63 63 64 66 67 67 68 59 59 65 68 68 69 69 70 70 70 65 61 68 69 69 70 68 64 64 63 63 62 64 68 67 66 68
51 52 52 52 55 57 58 60 63 61 61 62 64 67 64 65 58 60 63 66 64 65 67 68 61 62 58 56 64 64 65 67 68 67 67 67 64 66 63 66 69 68 68
48 48 49 49 50 50 53 56 55 55 56 62 65 66 65 63 62 55 56 61 60 60 62 64 65 60 59 57 55 60 64 65 65 67 68 67 68 69 69 67 68 69 68
46 46 46 45 46 47 48 48 48 48 47 48 48 49 56 56 55 54 54 55 57 58 59 61 61 54 53 53 54 57 55 57 63 65 66 67 67 67 68 69 70 69 69
44 44 43 44 44 45 46 46 45 44 44 45 45 45 46 48 48 49 49 50 53 56 59 58 55 53 52 55 56 56 56 61 62 64 64 66 67 68 68 68 68 70 70
42 42 42 42 42 43 44 44 43 42 43 44 43 45 45 45 44 43 43 45 49 50 52 51 52 54 54 55 57 58 61 63 64 65 66 68 69 69 68 68 67 68 67
41 41 40 40 41 41 41 42 41 42 43 42 42 43 42 42 41 43 42 42 45 46 45 50 51 50 49 50 53 56 59 60 61 64 66 67 68 68 68 69 68 67 67
40 39 39 39 39 40 40 40 43 43 42 41 41 41 41 42 41 40 39 40 42 44 48 48 49 50 51 52 54 56 59 61 62 64 65 66 67 68 69 69 69 68 68
39 38 38 39 39 39 39 39 38 39 41 40 39 40 40 40 39 38 38 39 42 45 47 48 49 50 52 54 56 57 57 59 63 64 65 66 66 67 66 67 68 69 69
40 41 37 37 37 37 37 37 37 37 36 35 38 39 39 38 38 37 38 39 39 41 43 43 44 45 47 49 50 52 55 59 61 60 61 62 62 62 63 66 67 66 66
36 36 36 36 37 37 36 36 36 36 36 35 36 37 37 37 37 37 38 37 38 39 40 41 43 44 46 50 50 51 52 54 57 56 57 56 56 56 57 58 58 56 59
39 40 37 35 35 35 35 35 35 35 34 34 34 34 35 35 34 35 36 36 37 37 37 38 39 40 41 43 46 48 50 51 52 53 54 53 53 54 53 53 53 53 57
38 38 39 36 35 35 35 35 35 34 34 34 33 34 37 34 34 33 34 34 35 35 35 36 37 38 39 41 43 43 46 48 50 50 50 50 50 50 50 51 52 52 54
36 36 36 36 36 35 36 35 34 34 34 33 33 33 35 33 33 33 33 33 33 34 35 36 37 38 37 37 38 41 44 45 48 48 48 48 46 47 47 48 49 50 50
36 36 36 36 36 37 36 35 34 34 34 34 34 33 33 33 33 33 33 33 34 34 34 34 35 35 36 37 37 37 39 40 42 44 45 45 44 44 44 44 44 45 47
36 36 36 36 36 36 35 35 35 35 34 34 34 33 33 33 33 33 33 33 33 34 34 34 33 34 35 36 37 38 39 40 41 42 43 44 43 42 41 41 42 44 45
35 36 36 36 36 37 36 35 34 34 33 34 33 33 33 34 33 33 32 32 32 34 34 34 34 35 36 36 37 37 37 36 38 38 41 42 42 42 42 41 40 40 42
36 36 36 36 36 36 35 35 35 34 33 33 34 34 35 35 35 34 34 33 33 33 34 35 35 35 36 36 37 37 34 34 35 34 36 37 37 38 39 39 40 39 40
Lifted_Index
-2 -2 -2 -3 -3 -4 -4 -4 -4 -4 -4 -4 -4 -4 -3 -4 -4 -4 -4 -4 -3 -3 -3 -3 -3 -3 -3 -3 -4 -4 -3 -4 -3 -3 -3 -3 -3 -3 -3 -3 -3 -3 -3
-2 -2 -3 -3 -3 -4 -4 -4 -4 -4 -4 -4 -4 -3 -3 -3 -4 -4 -4 -4 -3 -3 -3 -3 -3 -3 -3 -3 -3 -3 -3 -3 -3 -3 -3 -3 -3 -3 -3 -4 -4 -3 -3
-2 -2 -2 -3 -3 -3 -4 -4 -4 -4 -4 -4 -4 -4 -3 -3 -3 -3 -4 -4 -3 -3 -3 -3 -3 -3 -3 -3 -3 -3 -3 -3 -3 -3 -3 -3 -3 -3 -4 -4 -3 -3 -3
-1 -1 -2 -2 -3 -3 -3 -4 -4 -4 -5 -5 -5 -4 -4 -4 -4 -3 -4 -4 -4 -4 -3 -3 -3 -3 -3 -3 -3 -3 -3 -4 -4 -3 -3 -3 -3 -3 -3 -3 -3 -2 -2
-0 -0 -1 -1 -2 -2 -2 -3 -4 -4 -5 -5 -5 -5 -5 -5 -4 -4 -4 -5 -4 -4 -4 -4 -4 -4 -3 -3 -3 -3 -3 -3 -4 -4 -3 -3 -3 -3 -3 -3 -3 -3 -2
0 0 -0 -0 -1 -1 -1 -2 -3 -3 -4 -4 -5 -5 -5 -5 -5 -5 -5 -5 -5 -5 -4 -4 -4 -4 -4 -3 -3 -3 -3 -3 -3 -3 -3 -3 -3 -3 -3 -3 -3 -4 -4
0 0 0 0 0 0 -0 -1 -1 -2 -2 -3 -4 -4 -5 -5 -5 -5 -5 -5 -5 -5 -4 -4 -4 -4 -3 -3 -3 -3 -3 -3 -3 -3 -3 -3 -3 -3 -4 -4 -4 -4 -4
0 0 -0 0 1 1 1 0 0 -0 -0 -1 -2 -3 -3 -4 -4 -4 -4 -4 -4 -4 -4 -4 -4 -3 -3 -3 -3 -3 -3 -3 -3 -3 -3 -3 -3 -4 -3 -4 -4 -4 -4
1 0 0 0 1 1 1 1 1 1 1 -0 -1 -2 -2 -3 -3 -4 -4 -4 -3 -4 -3 -3 -3 -3 -3 -3 -3 -3 -3 -3 -3 -3 -3 -3 -3 -3 -3 -3 -3 -3 -3
2 2 2 2 2 2 2 2 2 2 1 0 -0 -1 -1 -1 -2 -2 -3 -3 -3 -3 -3 -3 -3 -3 -3 -3 -3 -3 -3 -3 -3 -3 -3 -3 -3 -3 -3 -2 -2 -2 -2
6 6 6 6 6 5 4 4 3 3 2 1 -0 -1 -1 -1 -0 -1 -1 -1 -1 -1 -2 -2 -2 -2 -2 -3 -3 -3 -3 -3 -3 -3 -3 -3 -3 -3 -3 -2 -2 -2 -2
10 10 10 10 9 8 7 7 6 6 5 3 1 -0 -1 -0 1 1 1 1 2 2 2 1 1 0 -0 -1 -1 -1 -1 -1 -2 -2 -2 -2 -3 -3 -3 -2 -2 -2 -2
12 12 12 11 11 10 9 9 8 8 7 5 4 2 2 2 3 3 4 5 6 6 6 6 5 4 4 3 3 2 2 1 0 -1 -1 -2 -2 -3 -3 -3 -3 -3 -3
13 13 13 13 12 11 11 10 9 9 9 8 7 6 6 6 6 7 7 8 9 9 9 9 9 9 8 8 7 6 5 3 2 1 -0 -1 -2 -2 -3 -3 -3 -3 -3
14 14 14 14 13 13 12 11 11 11 10 10 10 10 10 10 10 10 10 10 10 10 10 10 11 11 10 9 9 7 6 4 2 2 1 -0 -1 -2 -2 -2 -2 -2 -2
14 14 14 14 14 14 13 13 13 13 13 13 12 12 12 13 13 13 13 12 12 12 12 12 11 11 11 10 9 7 6 4 3 2 1 0 -0 -1 -2 -2 -2 -2 -2
15 15 15 15 15 15 15 14 14 15 15 15 15 15 15 15 15 15 15 15 15 15 14 14 13 13 12 11 10 9 7 6 4 3 2 1 1 -0 -1 -1 -2 -2 -2
15 15 16 16 16 16 15 15 15 15 16 16 16 16 16 16 16 16 16 16 16 16 16 16 16 15 14 13 12 11 9 8 7 6 4 3 3 2 1 1 -0 -0 -0
15 15 16 16 16 16 16 15 15 15 15 15 15 16 16 16 16 16 16 16 16 16 16 16 17 16 16 15 14 13 12 10 10 9 8 7 6 5 5 4 3 2 2
15 15 15 15 15 15 15 15 15 15 15 15 15 15 15 15 15 15 15 15 15 15 16 16 16 17 17 16 16 15 14 13 12 12 11 10 10 9 8 8 7 6 5
14 14 14 14 14 14 14 14 14 14 14 14 14 15 15 14 14 14 14 14 15 15 15 16 16 17 17 17 17 17 16 15 14 14 14 13 13 12 11 11 10 9 9
12 13 13 13 13 13 13 13 13 13 13 13 14 14 14 14 14 13 14 14 15 15 15 16 16 16 17 18 18 18 17 17 16 16 16 16 15 15 14 13 13 12 11
11 12 12 12 12 12 12 12 13 13 13 14 14 15 14 14 14 14 14 14 15 15 16 16 16 16 17 18 18 18 18 17 17 17 17 17 17 16 16 15 14 13 13
10 10 11 11 11 11 11 11 12 12 13 14 14 14 14 14 14 14 14 15 15 16 17 17 17 17 18 18 19 19 19 18 18 18 18 18 18 17 17 15 14 14 13
8 9 9 10 10 10 10 10 10 11 12 13 14 14 13 13 13 14 14 15 15 16 17 18 18 18 18 18 18 19 19 19 18 17 17 17 17 17 16 15 14 14 13
7 7 8 8 9 9 9 9 9 10 11 12 13 13 13 13 13 14 14 15 15 16 17 18 18 18 18 18 18 18 18 18 18 17 17 16 16 16 16 14 13 13 13